sat.trackr.live / text

‹ back to catalog

STARLINK-36086

NORAD 66980 · 2025-288X

PAYLOAD ACTIVE UNKNOWN

§ Identity

Operator
Country
US
Launch date
2025-12-08
Launch site
AFETR
Launch vehicle
Mass (kg)
RCS (m²)

Purposes: comms

External: N2YO · Heavens-Above · Gunter

§ Orbital elements

Epoch: 2026-05-25T04:29:22.015968Z

Period
94.27 min
Inclination
43.0007°
Eccentricity
0.0002180
Mean motion
15.27589436 rev/d
Perigee alt
481.5 km
Apogee alt
484.5 km
Semi-major
6,861.2 km
B*
6.3179e-4
RAAN
311.7031°
Arg perigee
280.1653°
Mean anomaly
79.8952°
Rev number
2,698

§ Raw data

STARLINK-360861 66980U 25288X   26145.18706037  .00017169  00000+0  63179-3 0  99962 66980  43.0007 311.7031 0002180 280.1653  79.8952 15.27589436 26982

JSON: /api/v1/satellites/66980 · /tle

For live sub-satellite position, see the globe view (requires WebGL).

§ Visibility from observer

Set your observer location to see the next 7 days of passes ≥ 10°. The values pass through the URL so the page stays shareable.

No JS? Fill the form by hand. The geolocation button needs JavaScript.